Regional Weather Roundup
Issued by NWS Upton, NY

Home | Current Version | Previous Version | Text Only | Print | Product List | Glossary On
Versions: 1 2 3 4 5 6 7 8 9 10 11 12 13 14 15 16 17 18 19 20 21 22 23 24 25 26 27 28 29 30 31 32 33 34 35 36 37 38 39 40 41 42 43 44 45 46 47 48 49 50
000
ASUS41 KOKX 022004
RWROKX

REGIONAL WEATHER ROUNDUP
NATIONAL WEATHER SERVICE NEW YORK NY
400 PM EDT MON MAY 02 2016

NOTE: "FAIR" INDICATES FEW OR NO CLOUDS BELOW 12,000 FEET WITH NO
SIGNIFICANT WEATHER AND/OR OBSTRUCTIONS TO VISIBILITY.

NYZ071-072-176-178-NJZ106-104-022100-
NEW YORK CITY METRO AREA


CITY           SKY/WX    TMP DP  RH WIND       PRES   REMARKS
CENTRAL PARK   CLOUDY    57  49  74 W3        29.92F
LAGUARDIA APRT CLOUDY    60  49  66 CALM      29.89F
KENNEDY INTL   CLOUDY    54  50  86 S6        29.92F
NEWARK/LIBERTY CLOUDY    59  50  72 VRB5      29.90F
BRNX BOT. GARD   N/A     59  48  67 S8        29.89F
TETERBORO      CLOUDY    57  49  74 S6        29.88F HAZE
$$

NYZ177-179-078>081-022100-
LONG ISLAND NEW YORK

CITY           SKY/WX    TMP DP  RH WIND       PRES   REMARKS
FARMINGDALE    CLOUDY    57  50  77 SW5       29.91F
ISLIP          CLOUDY    56  49  77 SW7       29.90F
SHIRLEY        CLOUDY    58  50  75 SW9       29.91F
RIVERHEAD        N/A     61  54  77 CALM      29.89F
WESTHAMPTON    PTSUNNY   53  49  86 VRB7      29.91F
EAST HAMPTON   CLOUDY    54  49  82 SW7       29.90F
MONTAUK POINT    N/A     54  50  86 VRB3      29.91F
$$

NYZ052-065-067-022100-
HUDSON VALLEY

CITY           SKY/WX    TMP DP  RH WIND       PRES   REMARKS
WHITE PLAINS   CLOUDY    56  50  80 S5        29.88F FOG
NEWBURGH       CLOUDY    55  52  88 W7        29.89F
MONTGOMERY     CLOUDY    57  52  83 SW8       29.88F
POUGHKEEPSIE   CLOUDY    55  49  80 CALM      29.89F
ALBANY         DRIZZLE   50  47  89 VRB3      29.90S FOG
$$

NJZ001-105-106-008-010-013-015-019>022-104-022100-
NEW JERSEY

CITY           SKY/WX    TMP DP  RH WIND       PRES   REMARKS
NEWARK/LIBERTY CLOUDY    59  50  72 VRB5      29.90F
TETERBORO      CLOUDY    57  49  74 S6        29.88F HAZE
CALDWELL       CLOUDY    55  50  83 CALM      29.90F HAZE
MORRISTOWN     CLOUDY    55  54  94 SW7       29.90F FOG
SOMERVILLE     CLOUDY    56  51  84 CALM      29.88F
SUSSEX         CLOUDY    58  51  78 SW8       29.88F
ANDOVER          N/A     57  51  80 VRB6      29.89F
TRENTON        CLOUDY    59  53  80 S6        29.89F
MILLVILLE      CLOUDY    64  57  78 W3        29.90F
ATLANTIC CITY  CLOUDY    65  58  78 W5        29.90F
WRIGHTSTOWN    CLOUDY    59  55  88 SW2       29.89S
TOMS RIVER     CLOUDY    59  54  82 CALM      29.91F
BELMAR         CLOUDY    60  54  80 W5        29.91F
$$

PAZ047>061-062-071-022100-
EASTERN PENNSYLVANIA

CITY           SKY/WX    TMP DP  RH WIND       PRES   REMARKS
PHILADELPHIA   CLOUDY    61  54  77 CALM      29.91F
ALLENTOWN      CLOUDY    59  52  77 CALM      29.90F
SCRANTON       CLOUDY    58  52  80 W6        29.90R
$$

CTZ002-004>006-009-010-012-RIZ004-006-007-MAZ004-011-015-022100-
SOUTHERN NEW ENGLAND
 IN CT

CITY           SKY/WX    TMP DP  RH WIND       PRES   REMARKS
BRADLEY INTL   CLOUDY    49  47  93 S3        29.88F
HARTFORD       CLOUDY    53  48  83 S5        29.89F
DANBURY        CLOUDY    54  49  83 W6        29.90F
WTRBRY/OXFORD  CLOUDY    52  46  82 SW3       29.91F FOG
BRIDGEPORT     CLOUDY    53  48  83 SW8       29.90S
MERIDEN        CLOUDY    54  49  83 CALM      29.89F
NEW HAVEN      CLOUDY    52  48  86 S7        29.90F
CHESTER        CLOUDY    54  50  87 SW3       29.89F
GROTON         CLOUDY    52  52 100 SW7       29.89F
WILLIMANTIC    CLOUDY    54  49  83 W3        29.89F

 IN RI

CITY           SKY/WX    TMP DP  RH WIND       PRES   REMARKS
PROVIDENCE     CLOUDY    56  49  77 S5        29.88F
BLOCK ISLAND   CLOUDY    53  49  86 SW7       29.90F
WESTERLY       CLOUDY    56  48  74 S9        29.89F

 IN MA

CITY           SKY/WX    TMP DP  RH WIND       PRES   REMARKS
BOSTON         LGT RAIN  48  47  96 CALM      29.88F FOG
WORCESTER      CLOUDY    48  46  93 SW5       29.87F
WESTFIELD      CLOUDY    49  46  90 S3        29.88F
PROVINCETOWN   CLOUDY    52  50  93 SE9       29.85F
NANTUCKET      CLOUDY    54  50  86 SW10      29.87F FOG
$$

ANZ330-335-338-340-345-350-353-355-022100-
COASTAL MARINE OBSERVATIONS


STATION/POSITION TIME  SKY/WX   TEMP    WIND        PRES    VSBY  WAVE
                                AIR SEA DIR/SP/G                  HT/PER
                 (UTC)          (F)     (DEG/KT/KT) (MB)    (MI)  (FT/S)
NY HARB ENTRANCE 1850            51 52   CALM  /  2 1013.1          4/ 9
20S FIRE ISLAND  1850            49 49   CALM  /  2 1013.0          5/ 9
GREAT SOUTH BAY  1915            51 57  180/  6/  6   N/A
23 SSW MONTAUK P 1950            48 49  260/  2/  4 1012.5          4/ 8
15 E BARNEGAT LI 1922               52                N/A           4/10
HUDSON CANYON    1850            51 49              1012.3          5/10
KINGS POINT      1900            54 54              1012.7
EXECUTION ROCKS  NOT AVBL
CENTRAL LI SOUND NOT AVBL
EASTERN LI SOUND 1900            51 48  240/  6/  8   N/A
ROBBINS REEF     1900            51     160/  4/  4 1012.4
$$


>>>>>>>>>>>>>>>>>>>>>>>>>>>> KEY <<<<<<<<<<<<<<<<<<<<<<<<<<<
>                                                          <
>     SKY/WX - SKY CONDITION/PRESENT WEATHER               <
>     TMP    - TEMPERATURE IN FAHRENHEIT                   <
>     DP     - DEWPOINT IN FAHRENHEIT                      <
>     RH     - RELATIVE HUMIDITY IN PERCENT                <
>     WIND   - DIRECTION AND SPEED IN MPH                  <
>     PRES   - MEAN SEA LEVEL PRESSURE IN INCHES OF HG     <
>     WCI    - WIND CHILL INDEX                            <
>     VSB    - VISIBILITY IN MILES                         <
>     HX     - HEAT INDEX                                  <
>     TC     - TEMPERATURE IN CELSIUS                      <
>     VRB    - VARIABLE WIND DIRECTION                     <
>                                                          <
>>>>>>>>>>>>>>>>>>>>>>>>>>>> KEY <<<<<<<<<<<<<<<<<<<<<<<<<<<





USA.gov is the U.S. government's official web portal to all federal, state and local government web resources and services.